IRIDIUM 33 DEB, 46971

Orbit data source: Space-Track

IRIDIUM 33 DEB, 46971 is space debris in LEO originally from a launch on Sun, 14 Sep 1997 UTC launched from the Tyuratam Missile And Space Complex (TTMTR). The debris from Iridium 33, an American commercial communications satellite, has been tracked extensively since its accidental collision with the defunct Russian satellite Cosmos 2251 in 2009. This event, occurring at high speed in low Earth orbit (LEO), generated thousands of pieces of space debris, significantly increasing the risk of further collisions. The Iridium 33 debris cloud has impacted space traffic management and orbital debris mitigation strategies, making it a subject of ongoing study in space situational awareness.

Loading next visibility...
Identifier
46971, 1997-051ACD
Orbit
LEO
Country
Flag of USUS
Related business
Manufacturer
Unknown
Mission
Spacecraft
Bus & Motor
Unknown
Mass
Unknown
Launch date (UTC)
1997-09-14 (29 years ago)
Launch vehicle
Unknown
Launch site
Tyuratam Missile And Space Complex (TTMTR)
Object type
Payload
Rocket body
Debris
Shape & HBR
Unknown shape, 0.1 m
Radar Cross Section
Small (<0.1 m²)

Expand to show TLE details & history
Last TLE update: 2 weeks ago

TLE from 2 weeks ago
0 IRIDIUM 33 DEB
1 46971U 97051ACD 26251.12637185  .00058618  00000-0  29069-2 0  9994
2 46971  86.3113 203.9901 0010178  69.6295 302.3070 15.17437547682891
Epoch: 2026-09-08T03:01Z
TLE epoch observation values (Epoch: 2026-09-08T03:01:58.527Z)
Latitude
11.7651°
Longitude
172.06409°
Altitude
512.245 km
Speed
7.611 km/s
True Right ascension
13h 39m 01s
True Declination
11° 41' 39"
Sunlit
Object was in daylight at epoch
Visualization orbit readout
Latitude
Unknown
Longitude
Unknown
Altitude
Unknown
Speed
Unknown
Apparent Right ascension
Unknown
Apparent Declination
Unknown
Sunlit
N/A
Visualization observer readout
Local Sidereal Time
04:41:55
Azimuth
Unknown
Elevation
Unknown
Doppler factor
Unknown
Orbital elements
Apogee altitude
517.449 km
Perigee altitude
503.427 km
Semi-major axis
6,888.575 km
Eccentricity
0.00102
Inclination
86.3113°
RAAN
203.9901°
Arg. of periapsis
69.6295°
True anomaly
302.20836°
Mean anomaly
302.307°
Eccentric anomaly
302.25769°
Mean motion
3.7962 °/min
Orbital period
94.83 mins
BSTAR
0.0029069
Loading maneuver chart data...
Computing Atmospheric mass density...

Documentation

Showing up to 5 results
|